Date String (YYYY-MM-DD hh:mm:ss) UTC,Instrument flags,Ambient pressure (hPa),Sample flow (lpm),Bypass flow (lpm),Sample temperature (°C),Ambient temperature (°C),ASC tube jacket temperature (°C),LED temperature (°C),Box temperature (°C),Sample RH (%),Span deviation,Mass concentration (μg/m³),Mass concentration (μg/m³),Mass concentration (μg/m³)
DateTimeUTC,F1_M11,P_M11,Q1_M11,Q2_M11,T1_M11,T2_M11,T3_M11,T4_M11,T5_M11,U1_M11,ZSPAN_M11,X0_M11,X2_M11,X1_M11
2021-09-04 07:00:00,,0830.6,5.00,0.00,29.9,29.0,00.0,38.9,31.7,34.3,-001.2,0015.56,0009.60,0008.72
2021-09-04 07:01:00,,0830.6,4.99,0.00,29.9,29.0,00.0,38.9,31.6,34.3,-001.2,0015.65,0009.57,0008.71
2021-09-04 07:02:00,,0830.6,5.00,0.00,29.9,29.0,00.0,39.0,31.7,34.3,-001.3,0015.44,0009.55,0008.70
2021-09-04 07:03:00,,0830.6,5.00,0.00,29.9,29.0,00.0,39.0,31.7,34.2,-001.1,0015.41,0009.55,0008.69
2021-09-04 07:04:00,,0830.6,5.00,0.00,29.9,29.0,00.0,39.0,31.6,34.1,-001.0,0015.33,0009.52,0008.68
2021-09-04 07:05:00,,0830.7,5.01,0.00,29.9,29.0,00.0,39.0,31.7,34.1,-000.8,0015.40,0009.51,0008.64
2021-09-04 07:06:00,,0830.7,5.00,0.00,29.9,29.0,00.0,39.0,31.7,34.1,-001.0,0014.98,0009.46,0008.60
2021-09-04 07:07:00,,0830.7,4.99,0.00,29.9,29.1,00.0,39.0,31.7,34.0,-000.9,0014.75,0009.38,0008.55
2021-09-04 07:08:00,,0830.6,4.99,0.00,29.9,29.1,00.0,39.0,31.7,34.1,-000.7,0014.83,0009.36,0008.51
2021-09-04 07:09:00,,0830.6,5.00,0.00,29.9,29.1,00.0,39.0,31.7,34.2,-000.8,0014.84,0009.38,0008.49
2021-09-04 07:10:00,,0830.6,5.01,0.00,29.9,29.1,00.0,39.0,31.7,34.3,-001.0,0014.81,0009.33,0008.46
2021-09-04 07:11:00,,0830.6,5.01,0.00,29.9,29.1,00.0,39.0,31.7,34.3,-000.9,0014.59,0009.32,0008.46
2021-09-04 07:12:00,,0830.6,4.99,0.00,29.9,29.1,00.0,39.1,31.7,34.3,-000.7,0014.44,0009.32,0008.45
2021-09-04 07:13:00,,0830.6,5.00,0.00,29.9,29.1,00.0,39.1,31.7,34.3,-000.5,0014.33,0009.31,0008.45
2021-09-04 07:14:00,,0830.6,4.99,0.00,29.9,29.1,00.0,39.1,31.7,34.4,-000.7,0014.43,0009.35,0008.46
2021-09-04 07:15:00,,0830.5,5.00,0.00,29.9,29.1,00.0,39.1,31.7,34.4,-000.9,0014.47,0009.36,0008.46
2021-09-04 07:16:00,,0830.6,5.00,0.00,29.9,29.1,00.0,39.1,31.7,34.4,-000.9,0014.31,0009.31,0008.46
2021-09-04 07:17:00,,0830.6,5.01,0.00,29.9,29.1,00.0,39.1,31.7,34.4,-000.8,0014.24,0009.30,0008.46
2021-09-04 07:18:00,,0830.6,5.00,0.00,29.9,29.1,00.0,39.1,31.7,34.3,-000.8,0014.64,0009.29,0008.47
2021-09-04 07:19:00,,0830.6,4.98,0.00,30.0,29.1,00.0,39.1,31.7,34.3,-000.7,0014.63,0009.27,0008.48
2021-09-04 07:20:00,,0830.6,5.00,0.00,30.0,29.1,00.0,39.1,31.7,34.3,-000.5,0014.43,0009.22,0008.47
2021-09-04 07:21:00,,0830.7,5.00,0.00,30.0,29.2,00.0,39.1,31.7,34.3,-000.3,0014.37,0009.21,0008.47
2021-09-04 07:22:00,,0830.7,5.01,0.00,30.0,29.2,00.0,39.1,31.8,34.3,-000.4,0014.36,0009.20,0008.46
2021-09-04 07:23:00,,0830.7,5.00,0.00,30.0,28.5,00.0,39.1,31.6,34.3,-000.7,0014.42,0009.22,0008.48
2021-09-04 07:24:00,,0830.7,5.01,0.00,29.8,26.7,00.0,39.0,31.1,34.5,-000.7,0014.64,0009.24,0008.47
2021-09-04 07:25:00,,0830.7,5.00,0.00,29.7,26.1,00.0,39.0,30.9,34.8,-000.7,0015.54,0009.15,0008.45
2021-09-04 07:26:00,,0830.6,4.99,0.00,29.6,26.3,00.0,38.9,30.9,35.1,-000.6,0015.72,0009.14,0008.42
2021-09-04 07:27:00,,0830.6,5.00,0.00,29.7,26.8,00.0,38.9,31.1,34.9,-000.6,0016.40,0009.16,0008.40
2021-09-04 07:28:00,,0830.6,5.01,0.00,29.8,27.2,00.0,38.9,31.3,34.5,-000.4,0016.21,0009.12,0008.36
2021-09-04 07:29:00,,0830.6,5.00,0.00,29.9,27.5,00.0,38.8,31.3,34.3,-000.4,0015.48,0009.11,0008.31
2021-09-04 07:30:00,,0830.6,4.99,0.00,30.0,27.8,00.0,38.8,31.3,34.2,-000.4,0015.28,0009.10,0008.30
2021-09-04 07:31:00,,0830.6,5.00,0.00,30.0,27.9,00.0,38.8,31.3,34.2,-000.5,0015.28,0009.12,0008.34
2021-09-04 07:32:00,,0830.6,5.00,0.00,30.0,28.1,00.0,38.9,31.3,34.2,-000.6,0015.39,0009.18,0008.37
2021-09-04 07:33:00,,0830.6,5.00,0.00,30.0,28.2,00.0,38.9,31.3,34.1,-000.7,0015.58,0009.20,0008.39
2021-09-04 07:34:00,,0830.6,4.99,0.00,30.0,28.3,00.0,38.9,31.3,34.1,-000.7,0016.01,0009.22,0008.40
2021-09-04 07:35:00,,0830.7,5.01,0.00,30.0,28.4,00.0,38.9,31.4,34.1,-000.7,0015.89,0009.24,0008.42
2021-09-04 07:36:00,,0830.7,4.99,0.00,30.0,28.5,00.0,38.9,31.4,34.1,-000.6,0014.94,0009.30,0008.44
2021-09-04 07:37:00,,0830.7,5.00,0.00,30.0,28.5,00.0,38.9,31.4,34.1,-000.5,0014.90,0009.35,0008.46
2021-09-04 07:38:00,,0830.8,5.01,0.00,30.0,28.6,00.0,39.0,31.4,34.1,-000.5,0014.34,0009.41,0008.50
2021-09-04 07:39:00,,0830.8,4.99,0.00,30.0,28.6,00.0,39.0,31.4,34.1,-000.4,0014.31,0009.49,0008.58
2021-09-04 07:40:00,,0830.8,5.00,0.00,30.0,28.7,00.0,39.0,31.4,34.1,-000.1,0014.48,0009.55,0008.62
2021-09-04 07:41:00,,0830.8,5.01,0.00,30.0,28.7,00.0,39.0,31.5,34.1,0000.1,0014.72,0009.60,0008.66
2021-09-04 07:42:00,,0830.8,5.00,0.00,30.0,28.8,00.0,39.0,31.5,34.0,0000.3,0014.77,0009.62,0008.65
2021-09-04 07:43:00,,0830.8,4.98,0.00,30.0,28.8,00.0,39.0,31.5,34.0,0000.3,0014.71,0009.59,0008.64
2021-09-04 07:44:00,,0830.8,5.00,0.00,30.0,28.8,00.0,39.0,31.5,33.9,0000.3,0014.80,0009.63,0008.64
2021-09-04 07:45:00,,0830.9,5.00,0.00,30.0,28.9,00.0,39.0,31.6,33.9,0000.3,0014.42,0009.66,0008.65
2021-09-04 07:46:00,,0830.8,4.99,0.00,30.0,28.9,00.0,39.0,31.6,33.9,0000.4,0014.21,0009.64,0008.66
2021-09-04 07:47:00,,0830.8,4.98,0.00,30.0,28.9,00.0,39.0,31.6,33.9,0000.4,0014.15,0009.63,0008.67
2021-09-04 07:48:00,,0830.7,5.00,0.00,30.0,29.0,00.0,39.0,31.6,33.8,0000.4,0014.72,0009.60,0008.68
2021-09-04 07:49:00,,0830.7,4.99,0.00,30.0,29.0,00.0,39.1,31.6,33.7,0000.3,0014.69,0009.58,0008.69
2021-09-04 07:50:00,,0830.8,5.00,0.00,30.0,29.0,00.0,39.1,31.7,33.6,0000.2,0014.75,0009.56,0008.68
2021-09-04 07:51:00,,0830.8,5.00,0.00,30.1,29.0,00.0,39.1,31.7,33.4,-000.0,0014.62,0009.55,0008.68
2021-09-04 07:52:00,,0830.8,4.98,0.00,30.1,29.1,00.0,39.1,31.7,33.5,-000.3,0014.75,0009.51,0008.70
2021-09-04 07:53:00,,0830.7,5.00,0.00,30.1,29.1,00.0,39.1,31.7,33.6,-000.4,0015.91,0009.51,0008.71
2021-09-04 07:54:00,,0830.7,5.00,0.00,30.1,29.1,00.0,39.1,31.7,33.6,-000.6,0016.06,0009.54,0008.74
2021-09-04 07:55:00,,0830.7,5.00,0.00,30.1,29.1,00.0,39.1,31.7,33.6,-000.7,0015.90,0009.53,0008.78
2021-09-04 07:56:00,,0830.7,5.01,0.00,30.1,29.1,00.0,39.1,31.7,33.6,-000.7,0015.83,0009.54,0008.82
2021-09-04 07:57:00,,0830.7,5.00,0.00,30.1,29.1,00.0,39.1,31.7,33.6,-000.8,0016.23,0009.54,0008.84
2021-09-04 07:58:00,,0830.8,5.00,0.00,30.1,29.2,00.0,39.1,31.7,33.5,-000.4,0016.33,0009.57,0008.86
2021-09-04 07:59:00,,0830.8,5.00,0.00,30.1,29.2,00.0,39.1,31.8,33.4,-000.7,0015.95,0009.62,0008.89
